Location: Unspecified
(0.0000°N, 0.0000°E)
Time: 19:02:31
(UTC+00:00)

Vanguard 2 Rocket - Pass Details

Date: 20 November 2019
Orbit: 554 x 3326 km, 32.9° (Epoch: 09 December)

Event Time Altitude Azimuth Distance (km) Brightness Sun altitude
Rises 10:34:46 0° 280° (W) 5,943 10.9 63.8°
Reaches altitude 10° 10:38:38 10° 272° (W) 5,265 10.7 64.4°
Maximum altitude 10:54:01 41° 208° (SSW) 4,128 11.1 66.6°
Drops below altitude 10° 11:12:26 10° 144° (SE) 6,157 11.6 68.7°
Sets 11:17:34 0° 137° (SE) 6,988 11.7 69.2°
